Wind_Speed
43 43 45 52 63 74 83 88 90 89 88 86 84 82 80 77 75 75 73 72 71 70 69 67 64 61 59 56 54 52 50 49 48 49 49 49 48 47
43 42 42 46 53 63 74 82 87 90 89 87 86 84 83 80 77 76 75 74 73 72 71 69 66 64 61 59 57 55 53 51 50 49 50 50 50 49
45 43 42 43 46 53 63 72 80 86 89 88 87 86 85 83 80 77 76 75 74 73 71 70 69 66 64 62 60 58 56 55 53 52 51 51 51 51
45 45 43 43 44 47 54 62 70 79 85 87 86 86 86 85 83 81 78 76 75 74 72 71 69 67 66 64 62 61 59 58 56 55 55 54 53 52
44 45 45 44 43 45 48 54 61 69 77 83 84 85 86 86 85 84 82 80 77 76 74 72 70 68 66 65 64 63 61 60 59 58 58 57 56 55
43 45 46 45 44 44 45 48 53 58 66 74 78 81 83 84 86 85 84 83 81 79 77 74 72 69 67 66 65 64 63 62 61 61 60 59 58 57
40 44 46 46 45 44 44 45 47 50 56 62 68 73 78 81 84 84 83 83 83 82 80 78 74 72 70 68 66 65 64 64 63 62 62 61 60 59
38 42 45 46 45 44 43 43 44 46 49 53 58 63 69 75 79 80 81 83 83 83 81 79 77 75 72 70 68 67 66 65 64 63 63 62 61 60
35 40 44 45 45 44 43 43 42 43 44 47 51 55 59 65 71 75 78 79 80 80 81 80 79 76 74 72 70 69 68 67 66 65 65 64 63 61
33 37 42 44 44 44 43 42 41 41 41 42 44 47 51 55 60 64 68 72 74 76 78 77 78 77 76 73 72 70 69 68 67 67 66 65 65 64
30 34 39 43 44 44 43 42 40 40 39 39 40 42 45 48 52 55 59 62 65 69 72 72 73 73 74 74 73 72 71 69 69 69 68 68 67 67
27 32 37 41 44 44 43 42 41 39 38 38 38 39 41 44 47 50 52 55 58 61 63 65 67 69 71 72 70 69 69 69 70 70 69 69 68 69
25 29 34 39 43 44 44 44 42 40 39 38 38 38 40 42 45 47 48 50 55 57 57 60 62 64 65 67 68 68 68 69 69 70 70 70 71 71
22 26 31 36 41 44 45 45 43 41 40 39 39 39 40 41 43 45 47 48 51 54 55 56 57 57 59 62 65 67 69 70 71 71 72 73 74 74
18 23 28 33 39 42 45 46 45 44 42 41 40 40 41 42 43 44 46 48 49 51 53 55 54 55 57 59 62 65 67 69 71 72 73 74 75 76
14 19 24 30 36 40 44 46 47 46 44 42 42 41 42 43 43 44 46 46 47 50 52 52 53 53 53 55 58 60 62 63 65 66 67 67 68 68
11 15 21 27 33 38 42 45 46 47 46 45 44 43 43 44 44 44 46 47 47 49 50 51 50 51 51 50 52 53 54 54 55 56 56 56 58 57
7 12 17 23 29 35 40 43 46 47 47 46 45 45 45 45 45 45 45 46 47 47 47 48 49 49 48 48 48 47 46 46 46 45 45 45 46 45
5 9 13 19 25 32 37 41 44 46 47 47 46 46 45 46 46 46 45 46 47 47 46 45 45 46 47 46 45 45 43 43 42 42 41 41 41 41
7 6 10 15 21 28 34 39 43 45 47 47 47 46 46 47 47 47 47 47 48 48 48 47 46 46 45 44 44 45 44 43 42 41 41 41 41 41
13 8 6 10 16 23 30 36 40 43 46 47 48 47 47 47 47 48 48 48 48 49 49 49 49 48 47 46 46 45 45 44 42 41 42 42 42 42
25 15 8 7 11 17 24 31 37 41 44 46 48 48 48 48 48 48 49 49 49 49 50 50 50 50 49 49 48 47 46 46 45 44 43 43 43 42
36 29 19 10 7 11 17 25 32 39 43 45 47 48 49 49 49 49 50 50 49 49 49 50 51 51 51 50 50 49 48 47 46 45 44 43 42 42
Wind_Direction
247 245 242 237 233 230 228 226 224 222 224 225 225 225 225 226 226 226 227 228 228 228 229 231 231 231 232 233 234 235 236 236 235 235 235 236 236 237
244 243 241 237 234 232 230 228 226 223 222 223 225 225 225 225 225 226 226 227 228 228 229 230 231 231 232 233 234 235 236 237 237 237 237 237 238 238
241 240 239 237 234 232 230 229 228 226 223 222 224 225 225 225 225 225 226 227 228 228 229 229 230 231 232 233 234 235 236 237 237 238 238 238 239 239
239 237 236 235 233 231 229 229 228 227 225 223 223 225 226 226 226 226 226 226 227 228 229 230 230 230 231 233 234 235 236 237 238 238 240 240 241 241
236 235 234 233 232 230 228 227 227 227 227 225 224 225 226 227 227 227 227 227 228 228 229 230 231 231 231 232 234 235 236 237 238 239 240 241 242 243
234 232 231 230 229 228 227 225 225 225 226 226 225 225 226 227 228 228 229 229 229 229 230 230 231 232 233 233 234 235 236 237 238 240 241 242 243 244
232 229 227 227 227 226 225 224 223 223 223 225 225 225 226 227 228 229 230 230 230 230 231 231 232 233 234 234 235 235 237 238 239 241 242 243 244 245
230 226 224 224 224 224 223 222 222 221 221 222 223 224 225 227 228 229 231 231 232 232 232 232 233 234 235 236 236 237 237 238 240 241 243 244 245 246
228 223 221 220 220 220 221 221 220 220 220 220 221 221 222 224 226 229 231 232 233 233 234 235 235 235 236 236 237 238 238 239 240 241 243 244 245 245
226 221 218 216 216 217 217 218 218 218 219 219 220 220 219 220 222 225 228 230 232 233 234 236 236 236 237 237 238 238 239 239 240 241 242 244 245 246
223 219 215 213 212 213 214 214 214 215 216 216 217 217 217 216 215 216 219 222 225 229 231 233 234 236 237 237 238 239 239 240 240 241 242 243 245 246
219 216 213 210 209 209 210 210 211 211 212 213 213 213 213 211 211 210 212 215 217 221 224 227 229 231 233 235 236 237 237 238 239 241 242 244 246 246
216 214 212 209 207 206 207 208 209 209 210 211 211 211 209 208 207 206 206 209 211 213 217 220 223 226 228 231 232 231 231 234 235 238 240 242 243 244
214 214 212 209 206 206 206 207 207 208 208 209 209 208 207 207 206 206 206 205 206 207 211 216 219 222 224 224 225 226 228 230 231 233 235 236 238 240
216 216 213 210 207 206 206 207 207 207 207 208 208 208 207 204 204 203 203 202 204 206 209 212 215 218 220 222 223 225 226 228 229 231 233 234 237 240
220 220 217 212 210 208 208 208 208 208 207 207 207 207 207 205 204 204 203 203 203 204 205 206 210 214 217 219 222 225 228 231 233 234 236 238 240 243
228 225 221 216 212 211 210 209 209 209 209 208 208 208 208 207 207 206 205 206 206 206 207 207 207 211 214 216 218 221 225 230 234 237 240 243 246 248
239 231 226 221 216 213 212 211 211 211 211 210 210 209 209 209 209 208 207 207 207 207 208 210 211 211 212 214 217 221 224 229 233 237 241 244 247 250
277 244 232 226 220 217 215 214 214 213 213 213 212 212 212 212 212 212 210 210 210 210 211 212 214 215 217 217 218 221 224 228 232 236 239 242 245 249
338 282 246 232 225 221 218 216 216 216 216 215 215 214 214 214 214 215 214 213 213 214 215 215 216 217 218 219 220 222 225 228 231 234 238 241 245 249
6 337 285 247 232 225 221 219 218 217 217 217 217 216 216 216 216 217 217 218 218 218 218 219 220 221 222 223 225 227 228 230 232 235 239 243 246 250
24 13 346 289 248 233 226 222 220 219 219 219 219 219 218 218 218 218 218 220 221 222 222 223 223 224 225 226 228 229 230 232 234 238 241 244 247 250
29 26 19 358 300 251 235 227 223 221 220 220 220 220 220 220 220 221 220 221 222 223 224 224 225 225 226 227 229 230 231 232 234 237 239 242 245 248
Height
5438 5442 5446 5452 5459 5468 5480 5494 5511 5526 5541 5556 5569 5582 5593 5605 5617 5628 5639 5650 5660 5669 5678 5688 5697 5706 5714 5722 5729 5737 5743 5750 5756 5763 5769 5775 5780 5785
5424 5429 5433 5438 5444 5452 5462 5474 5488 5505 5521 5537 5549 5562 5574 5587 5600 5612 5623 5634 5644 5654 5664 5674 5683 5693 5702 5710 5718 5726 5732 5739 5745 5752 5758 5763 5769 5774
5410 5416 5420 5425 5431 5438 5446 5457 5469 5483 5501 5518 5530 5543 5557 5570 5583 5595 5606 5617 5628 5639 5649 5659 5669 5679 5689 5697 5705 5713 5721 5727 5734 5740 5746 5752 5757 5763
5396 5402 5408 5413 5419 5425 5433 5442 5453 5465 5481 5499 5513 5526 5539 5552 5566 5578 5590 5601 5613 5624 5634 5644 5655 5665 5675 5684 5692 5700 5708 5715 5722 5728 5735 5740 5746 5751
5382 5388 5395 5401 5408 5414 5421 5429 5438 5450 5463 5479 5495 5508 5521 5534 5547 5560 5572 5584 5596 5608 5619 5630 5640 5651 5661 5670 5679 5687 5695 5703 5710 5716 5721 5727 5733 5739
5368 5375 5382 5389 5396 5403 5410 5417 5426 5437 5449 5462 5477 5490 5503 5516 5528 5542 5555 5568 5580 5592 5603 5615 5626 5636 5647 5657 5667 5675 5682 5689 5695 5702 5708 5714 5720 5727
5354 5361 5369 5377 5385 5392 5400 5408 5416 5426 5436 5447 5460 5473 5485 5497 5511 5525 5537 5550 5562 5574 5588 5601 5614 5624 5632 5642 5651 5659 5668 5675 5682 5688 5694 5701 5707 5714
5341 5348 5356 5365 5374 5382 5390 5398 5406 5415 5424 5434 5445 5456 5468 5481 5494 5507 5520 5533 5548 5564 5574 5584 5596 5606 5617 5627 5637 5645 5654 5661 5668 5675 5682 5688 5694 5701
5329 5336 5345 5354 5363 5372 5381 5389 5397 5405 5414 5423 5433 5442 5454 5467 5482 5495 5505 5517 5531 5544 5556 5568 5579 5590 5601 5611 5621 5630 5638 5646 5654 5661 5668 5675 5681 5688
5319 5326 5334 5344 5353 5363 5372 5380 5388 5397 5406 5414 5424 5434 5442 5453 5465 5478 5489 5502 5514 5526 5539 5550 5561 5573 5585 5595 5604 5614 5623 5631 5639 5647 5654 5661 5668 5674
5309 5316 5324 5334 5343 5354 5363 5372 5381 5389 5397 5405 5414 5422 5432 5442 5452 5463 5474 5485 5497 5509 5521 5533 5544 5556 5567 5577 5588 5598 5608 5616 5625 5633 5639 5647 5654 5660
5301 5308 5316 5325 5334 5344 5354 5364 5373 5381 5390 5398 5406 5414 5423 5432 5441 5451 5461 5472 5484 5494 5506 5517 5529 5540 5550 5561 5573 5583 5593 5601 5609 5616 5624 5631 5637 5643
5296 5302 5309 5318 5327 5337 5346 5356 5365 5374 5382 5391 5399 5407 5415 5424 5432 5441 5451 5461 5472 5483 5494 5505 5515 5527 5537 5548 5559 5569 5577 5586 5594 5601 5608 5615 5621 5627
5293 5298 5304 5312 5321 5330 5339 5348 5357 5367 5375 5384 5392 5400 5408 5416 5424 5433 5443 5452 5462 5473 5484 5494 5505 5516 5526 5535 5545 5553 5562 5570 5578 5586 5593 5600 5606 5611
5291 5295 5301 5308 5315 5324 5332 5341 5350 5360 5368 5377 5385 5393 5401 5409 5418 5426 5435 5444 5454 5463 5474 5484 5494 5503 5513 5523 5531 5539 5547 5554 5562 5570 5577 5584 5591 5596
5290 5293 5298 5304 5311 5318 5326 5335 5343 5352 5361 5370 5378 5387 5395 5403 5411 5420 5428 5437 5446 5455 5464 5473 5483 5492 5501 5509 5517 5525 5533 5540 5547 5555 5562 5569 5575 5581
5289 5292 5296 5301 5306 5313 5321 5329 5337 5346 5354 5363 5372 5380 5388 5397 5405 5413 5421 5429 5438 5447 5455 5464 5473 5481 5490 5498 5506 5513 5521 5529 5536 5543 5549 5556 5562 5568
5289 5291 5293 5297 5302 5308 5315 5323 5331 5339 5347 5356 5364 5373 5381 5389 5398 5406 5414 5422 5430 5438 5447 5455 5464 5473 5481 5488 5496 5504 5511 5519 5526 5532 5539 5545 5551 5557
5289 5290 5291 5294 5298 5304 5310 5317 5324 5332 5340 5349 5357 5366 5374 5382 5390 5398 5407 5414 5423 5431 5439 5448 5456 5464 5472 5480 5487 5495 5502 5509 5516 5523 5530 5536 5541 5546
5289 5289 5290 5291 5294 5299 5304 5311 5318 5325 5333 5342 5350 5358 5366 5374 5382 5390 5398 5407 5414 5423 5431 5439 5447 5455 5464 5472 5479 5486 5493 5501 5508 5514 5520 5525 5531 5536
5290 5289 5288 5289 5291 5294 5298 5304 5311 5318 5326 5334 5342 5350 5358 5366 5374 5382 5390 5397 5406 5414 5422 5431 5438 5447 5455 5463 5470 5477 5484 5491 5498 5504 5510 5516 5521 5526
5293 5290 5288 5287 5288 5290 5293 5298 5304 5310 5317 5325 5333 5341 5349 5357 5365 5373 5381 5388 5396 5404 5413 5421 5429 5437 5445 5452 5460 5467 5475 5482 5488 5495 5501 5506 5511 5517
5298 5293 5289 5287 5286 5287 5289 5292 5296 5302 5309 5316 5324 5332 5340 5348 5355 5363 5371 5379 5387 5395 5402 5410 5418 5426 5434 5442 5450 5457 5465 5472 5479 5485 5491 5496 5501 5506